Location: Ferma
(41.9500°N, 44.5167°E)
Time: 18:46:35
(UTC+00:00)

Cosmos 2360 Rocket - Pass Details

Date: 24 October 2021
Orbit: 832 x 846 km, 71.0° (Epoch: 02 December)

Event Time Altitude Azimuth Distance (km) Brightness Sun altitude
Rises 14:48:17 0° 171° (S) 3,370 5.3 -8.4°
Reaches altitude 10° 14:51:00 10° 160° (SSE) 2,443 4.5 -8.9°
Maximum altitude 14:55:43 29° 103° (ESE) 1,511 3.0 -9.7°
Drops below altitude 10° 15:00:28 10° 46° (NE) 2,466 4.2 -10.6°
Enters shadow 15:02:38 - 37° (NE) 3,202 4.8 -11.0°
